Lid_Strength_Index
3 6 7 7 12 13 14 15 13 11 10 8 8 8 9 9 9 12 6 3 1 0 -0 -0 -2 -2 -2 -2 -2 -2 -2 -2 -2 -2 -2 -2 -2 -1 -1 -1 -1 -1 -1 -2 -1 -1 -1 -1 -0
5 5 6 8 15 18 16 13 14 12 8 8 9 8 9 10 8 7 5 2 0 -0 -0 -0 -1 -2 -2 -2 -2 -2 -2 -2 -2 -2 -2 -2 -1 -1 -1 -1 -1 -1 -1 -1 -1 -1 -1 -0 -0
5 5 10 11 14 16 16 13 12 10 9 8 10 9 9 9 8 6 4 2 1 0 0 -0 -1 -2 -2 -2 -2 -2 -2 -2 -2 -2 -2 -2 -1 -1 -1 -1 -1 -1 -1 -1 -1 -1 -1 -0 0
7 7 10 14 15 14 14 13 10 11 11 10 9 9 8 6 6 5 2 2 2 1 0 -1 -1 -2 -2 -2 -2 -2 -2 -2 -2 -2 -2 -2 -1 -1 -1 -1 -1 -0 -1 -0 -0 -1 0 0 -0
7 9 13 15 15 15 13 11 10 10 11 12 10 10 9 6 5 3 2 1 2 1 0 -0 -1 -2 -2 -2 -2 -2 -2 -2 -2 -2 -2 -2 -1 -1 -1 -0 -0 -0 -0 -0 0 0 0 1 0
9 10 14 16 16 14 12 11 10 10 10 12 12 10 9 6 4 4 2 2 1 0 0 -0 -0 -1 -2 -2 -2 -2 -2 -2 -1 -2 -1 -1 -1 -1 -0 -0 -0 0 0 0 1 1 1 1 1
10 12 14 15 15 14 12 9 10 11 10 9 10 11 10 8 5 3 2 2 2 2 0 -0 -0 -0 -1 -1 -2 -2 -2 -2 -1 -1 -1 -1 -1 -0 -0 0 0 0 1 1 2 2 1 2 2
9 11 14 14 15 14 11 10 9 9 11 9 9 11 11 7 5 3 2 3 3 3 1 0 -0 -0 -0 -1 -1 -1 -1 -1 -1 -0 -1 0 -0 -0 0 0 1 1 2 2 3 3 3 3 3
8 11 14 13 13 13 10 9 9 9 10 10 9 10 9 5 5 3 3 4 4 3 2 1 1 1 0 -0 0 0 -0 -0 -0 0 1 2 4 4 5 2 1 2 3 3 4 5 5 6 5
10 12 12 10 10 10 9 9 9 10 11 11 10 9 7 6 5 5 4 4 4 4 3 1 1 1 1 0 2 3 2 2 3 3 4 5 6 6 5 4 2 3 4 5 6 7 7 11 14
10 11 10 9 9 8 9 8 8 9 11 10 10 9 7 6 5 5 4 4 4 4 3 2 2 1 1 2 4 4 5 5 5 5 6 6 6 7 7 8 9 9 9 13 12 13 15 15 15
11 9 9 9 8 9 9 8 8 9 8 8 8 8 8 7 6 6 5 5 5 5 4 2 3 2 3 2 4 5 6 6 6 6 7 8 8 9 9 10 11 11 13 15 15 15 15 15 15
11 10 9 8 8 9 8 8 8 8 8 9 8 7 8 8 6 5 5 5 5 5 5 2 3 3 3 3 5 5 6 6 7 7 7 7 8 9 9 11 13 13 14 15 15 15 15 15 15
10 9 9 9 9 9 9 9 8 7 9 9 8 8 7 8 6 6 6 6 6 5 5 3 3 3 4 4 4 5 6 6 7 7 7 7 8 9 9 10 12 13 14 14 14 15 15 15 14
10 12 11 11 10 9 8 10 10 7 9 9 8 8 8 7 6 6 6 6 6 6 5 3 3 3 4 4 4 5 5 6 7 7 7 7 8 8 9 10 11 12 14 14 14 14 14 14 14
11 13 14 12 10 9 8 13 8 7 9 9 9 9 8 7 6 6 5 6 6 6 6 4 3 4 4 4 4 5 5 6 6 7 7 7 7 8 10 10 11 12 14 14 14 14 14 14 14
14 17 15 13 9 9 10 12 8 8 9 9 10 9 8 8 7 6 6 6 6 6 7 5 4 4 4 4 5 5 6 6 7 7 7 7 8 8 10 11 11 13 14 14 14 14 14 15 14
16 15 14 14 12 10 11 11 9 9 10 9 9 9 9 8 7 6 6 6 6 6 7 5 4 4 4 5 6 6 7 7 8 7 7 7 8 9 10 11 11 13 13 14 14 14 14 14 14
13 14 14 14 11 12 12 10 9 8 11 11 10 10 9 8 7 6 6 7 7 7 7 7 5 5 5 7 6 6 5 8 9 9 8 8 8 10 10 11 12 13 13 13 14 14 14 14 14
13 14 15 13 12 11 12 12 11 10 9 9 9 10 9 8 8 7 6 7 8 8 7 7 6 6 5 5 5 6 8 9 8 8 9 9 9 9 10 11 12 12 13 13 13 14 14 14 14
14 14 14 14 13 12 13 13 13 11 9 9 9 8 8 8 8 7 7 8 8 8 8 7 8 8 6 6 8 9 8 9 9 9 8 9 10 9 10 11 11 12 12 13 13 14 13 14 14
16 12 12 14 15 17 13 19 14 13 11 11 9 9 8 8 7 7 7 8 8 8 8 8 8 8 8 9 7 6 6 6 7 7 8 8 9 10 10 10 11 11 11 12 13 12 13 13 14
15 11 12 13 15 17 16 17 16 15 14 12 11 10 8 7 7 7 7 7 7 7 9 8 8 9 9 10 7 7 7 7 9 9 8 9 9 9 10 9 10 11 11 11 12 12 13 13 13
11 12 12 13 15 19 15 16 17 15 15 14 12 12 10 9 8 7 7 7 7 7 9 9 11 11 11 11 10 9 9 10 10 10 9 9 9 9 9 9 10 10 10 11 11 12 12 12 12
11 14 18 20 20 19 17 17 14 13 13 13 12 12 12 10 9 8 8 8 8 8 9 10 11 12 11 11 11 10 10 10 9 10 9 10 10 10 9 9 10 10 10 10 11 11 12 12 12
13 13 17 22 22 19 17 18 15 12 10 10 13 13 13 11 9 9 9 8 8 8 9 9 11 11 12 11 11 10 10 10 9 10 10 10 9 9 10 9 9 9 10 10 11 11 11 11 12
14 14 12 16 23 19 18 17 14 13 13 13 14 14 13 13 13 11 10 9 9 9 9 9 10 10 12 11 11 11 11 11 10 11 11 11 11 11 10 10 11 11 10 10 10 10 11 12 13
11 11 14 16 23 23 19 19 18 16 13 13 14 14 13 13 12 12 12 11 10 10 9 9 10 11 11 12 11 11 11 10 11 12 12 12 11 11 12 12 11 11 11 10 10 11 12 13 12
14 13 13 13 16 18 21 19 15 13 14 13 13 14 14 12 12 12 11 11 11 10 10 10 10 10 11 11 12 12 12 11 12 12 12 12 12 12 12 11 11 11 11 11 11 12 12 12 12
13 13 11 15 17 17 17 19 14 14 13 13 13 13 14 12 12 12 11 11 11 10 10 10 10 10 10 10 11 12 12 12 12 13 13 12 12 11 11 11 11 11 11 11 12 13 12 12 13